Content
SEND FEEDBACK

Daily
Averages
Monthly
Summary
Mexico

CANCUN, QUINTANA ROO


Home > North America > Mexico > Quintana Roo
Elevation: 9 meters     Latitude: 21 09N     Longitude: 086 49W

WEATHER
 
SELECT A DAY
Number of Records: 165,850;   Date Range: 1/1/95 - 9/30/14
 
SHARE

PRINT THIS DATA

[ ← Previous Day ]
WEATHER ALMANAC - 8 JULY, 2013
[ Next Day → ]
[ °F ]   °C
We're sorry. There is no daily almanac available for Cancun, Quintana Roo on 8 July, 2013.
WEATHER BY HOUR - 8 JULY, 2013
[ °F ]   °C
Local TimeTemperatureDewpointHumidityBarometerVisibilityWind DirectionWind SpeedGust SpeedPrecipitationEventsConditions
1:42 AM27 °C24 °C84 %1015.2 hPa11.3 kmENE (60°)9.3 km/hScattered Clouds
2:46 AM27 °C24 °C84 %1014.6 hPa11.3 kmENE (70°)7.4 km/hScattered Clouds
3:50 AM26 °C24 °C89 %1014.6 hPa11.3 kmENE (60°)5.6 km/hScattered Clouds
4:44 AM26 °C24 °C89 %1014.6 hPa11.3 kmENE (70°)5.6 km/hScattered Clouds
5:44 AM26 °C24 °C89 %1014.6 hPa11.3 kmENE (70°)7.4 km/hScattered Clouds
6:43 AM27 °C23 °C79 %1015.2 hPa11.3 kmENE (70°)7.4 km/hScattered Clouds
7:40 AM29 °C23 °C70 %1016.3 hPa11.3 kmEast (90°)11.1 km/hMostly Cloudy
8:44 AM29 °C23 °C70 %1016.9 hPa11.3 kmEast (100°)14.8 km/hMostly Cloudy
9:41 AM29 °C23 °C70 %1017.3 hPa11.3 kmENE (70°)11.1 km/hMostly Cloudy
10:43 AM30 °C24 °C70 %1017.6 hPa11.3 kmEast (80°)16.7 km/hMostly Cloudy
11:41 AM25 °C22 °C83 %1017.6 hPa9.7 kmSSE (160°)9.3 km/hMostly Cloudy
12:41 PM30 °C25 °C74 %1017.6 hPa11.3 kmENE (70°)13 km/hMostly Cloudy
1:43 PM30 °C25 °C74 %1016.9 hPa11.3 kmENE (70°)11.1 km/hMostly Cloudy
2:47 PM30 °C24 °C70 %1016.3 hPa11.3 kmEast (80°)14.8 km/hMostly Cloudy
3:42 PM26 °C24 °C89 %1016.9 hPa9.7 kmSSE (150°)11.1 km/hMostly Cloudy
4:40 PM27 °C24 °C84 %1016.3 hPa11.3 kmEast (100°)3.7 km/hMostly Cloudy
5:47 PM29 °C24 °C74 %1015.9 hPa11.3 kmENE (60°)5.6 km/hMostly Cloudy
6:41 PM28 °C24 °C79 %1016.3 hPa11.3 kmEast (80°)7.4 km/hMostly Cloudy
7:44 PM27 °C24 °C84 %1016.6 hPa11.3 kmNE (40°)3.7 km/hScattered Clouds
8:45 PM26 °C25 °C94 %1016.9 hPa11.3 kmNNE (30°)3.7 km/hScattered Clouds
9:48 PM26 °C25 °C94 %1015.6 hPa11.3 kmEast (90°)13 km/hMostly Cloudy
10:47 PM25 °C24 °C94 %1018.3 hPa9.7 kmEast (90°)13 km/hRainLight Rain
11:46 PM24 °C24 °C100 %1017.9 hPa9.7 kmCalmMostly Cloudy
Hourly data recorded from MMUN, located 0 kilometers away from Cancun, Quintana Roo







STORIES FROM OUR PARTNERS